Regional Weather Roundup
Issued by NWS

Home | Current Version | Previous Version | Graphics & Text | Print | Product List | Glossary On
Versions: 1 2 3 4 5 6 7 8 9 10 11 12 13 14 15 16 17 18 19 20 21 22 23 24 25 26 27 28 29 30 31 32 33 34 35 36 37 38 39 40 41 42 43 44 45 46 47 48 49 50
000
ASUS45 KBOU 311907
RWRCO

WEATHER ROUNDUP FOR COLORADO
NATIONAL WEATHER SERVICE DENVER/BOULDER CO
100 PM MDT MON AUG 31 2015

NOTE: "FAIR" INDICATES FEW OR NO CLOUDS BELOW 12000 FEET WITH NO
SIGNIFICANT WEATHER AND/OR OBSTRUCTIONS TO VISIBILITY.

COZ001>005-013-030-031-312000-
...NORTHWEST COLORADO...

CITY           SKY/WX    TMP DP  RH WIND       PRES   REMARKS
CRAIG          CLOUDY    76  50  40 MISG      30.21F
HAYDEN         NOT AVBL
MEEKER         FAIR      72  54  53 VRB5      30.24F
MOUNT WERNER   NOT AVBL
STEAMBOAT SPGS FAIR      69  50  51 E6        30.26F
WALDEN         FAIR      70  45  40 S9        30.33F
$$

COZ006>008-011-312000-
...WEST CENTRAL VALLEYS...

CITY           SKY/WX    TMP DP  RH WIND       PRES   REMARKS
GRAND JUNCTION FAIR      74  59  59 SE7       30.16F
MONTROSE       FAIR      76  53  44 CALM      30.24F
EAGLE          LGT RAIN  63  55  77 SW12      30.32R
RIFLE          LGT RAIN  65  60  84 NE9       30.24F
DELTA          FAIR      78  53  41 SE5       30.20F
NUCLA          FAIR      81  45  28 N8        30.24F
$$

COZ017>023-064>068-312000-
...SOUTHWEST COLORADO...

CITY           SKY/WX    TMP DP  RH WIND       PRES   REMARKS
DURANGO        FAIR      77  47  34 SW7       30.27F
CORTEZ         FAIR      80  50  34 MISG      30.22F
PAGOSA SPRINGS FAIR      73  41  32 W6        30.33F
TELLURIDE      PTSUNNY   64  45  51 W5        30.46R
WOLF CREEK PAS CLOUDY    54  41  62 SW15G25   30.64S
$$

COZ009-010-012-014-032>034-037-058>063-312000-
...CENTRAL COLORADO...

CITY           SKY/WX    TMP DP  RH WIND       PRES   REMARKS
ASPEN          CLOUDY    65  52  62 N12       30.35S
BUENA VISTA    CLOUDY    65  47  52 SW6       30.32S
COPPER MTN     CLOUDY    54  45  71 W16       30.60F
BERTHOUD PASS  CLOUDY    45  32  61 N6        30.66S
COTTONWOOD PAS PTSUNNY   61  39  44 SW16G22   30.46F
GUNNISON       FAIR      70  46  43 N7        30.35F
KREMMLING      CLOUDY    64  45  48 CALM      30.33F THUNDER
LEADVILLE      FAIR      64  38  38 NW9G17    30.43F
MONARCH PASS   FAIR      50  39  66 W16       30.72S
SALIDA         FAIR      77  42  28 W13       30.34F
SUNLIGHT       CLOUDY    50  48  93 CALM      30.59R
WILKERSON PASS CLOUDY    63  36  36 SW3       30.57F
$$

COZ069>075-312000-
...SAN LUIS VALLEY/SANGRE DE CRISTO MOUNTAINS...

CITY           SKY/WX    TMP DP  RH WIND       PRES   REMARKS
ALAMOSA        FAIR      77  40  26 VRB3      30.27F
LA VETA PASS   CLOUDY    64  39  39 SW3       30.48S
SAGUACHE       NOT AVBL
$$

COZ035-036-038>040-312000-
...NORTHERN COLORADO FRONT RANGE...

CITY           SKY/WX    TMP DP  RH WIND       PRES   REMARKS
DENVER INTL AP PTSUNNY   83  43  24 NW5       30.11F
DMNS CITY PARK   N/A     85  44  23 E14       30.10F
AURORA         PTSUNNY   82  45  26 VRB2      30.13F
FRONT RANGE AP PTSUNNY   82  43  24 SE7       30.13F
ERIE MUNI ARPT FAIR      87  39  18 SE8       30.08F
BOULDER MUN AP FAIR      81  45  28 CALM      30.09F
CENTENNIAL     PTSUNNY   83  45  26 E6        30.14F
BROOMFIELD     PTSUNNY   82  43  24 E6        30.13F
FORT COLLINS   FAIR      82  50  32 S5        30.08F
LONGMONT       FAIR      89  46  21 E8        30.09F
$$

COZ041-046-047-076>085-087-088-312000-
...PIKES PEAK/PALMER DIVIDE AND SOUTHERN FOOTHILLS...

CITY           SKY/WX    TMP DP  RH WIND       PRES   REMARKS
COLO. SPRINGS  PTSUNNY   81  43  26 NE7G17    30.17F
A. F. ACADEMY  MOSUNNY   80  43  26 VRB3      30.17F
ELLICOTT       FAIR     N/A N/A N/A E12       30.16S
FALCON         FAIR      80  44  28 MISG      30.23F
FORT CARSON    FAIR      83  47  29 SE8       30.13F
LIMON          LGT RAIN  80  47  31 N14       30.12F
MONUMENT HILL  PTSUNNY   73  41  31 N5        30.24S
TRINIDAD       PTSUNNY   86  43  22 E7G18     30.12F
$$

COZ042>045-048>051-090-091-312000-
...NORTHEAST COLORADO...

CITY           SKY/WX    TMP DP  RH WIND       PRES   REMARKS
GREELEY ARPT   FAIR      82  48  30 CALM      30.08F
AKRON          FAIR      86  46  24 NE12G25   30.07F
BURLINGTON     FAIR      90  48  23 NE7       30.01F
WRAY           CLOUDY    96  44  16 NE14G23   29.98S
STERLING       FAIR      84  54  34 E12G17    30.02F
HOLYOKE        FAIR      95  48  20 N14       30.00S
FORT MORGAN    PTSUNNY   82  45  27 W5        30.07S
$$

COZ086-089-092>099-312000-
...SOUTHEAST COLORADO...

CITY           SKY/WX    TMP DP  RH WIND       PRES   REMARKS
PUEBLO         FAIR      93  46  19 NE7       30.04F
LA JUNTA       FAIR      96  47  18 N13G25    29.99F
LAMAR          FAIR      90  56  31 N3        29.93F HAZE
SPRINGFIELD      N/A     95  47  19 NW8       29.98
$$



USA.gov is the U.S. government's official web portal to all federal, state and local government web resources and services.